Tracking 33057 objects as of 24-Jan-2026
HD Live streaming from Space Station
objects crossing your sky now

THOR ABLESTAR DEB

Track THOR ABLESTAR DEB now!
10-day predictions


NORAD ID: 4028
Int'l Code: 1961-015JQ
Perigee: 631.1 km
Apogee: 753.6 km
Inclination: 66.8 °
Period: 98.5 minutes
Semi major axis: 7063 km
RCS: 0.0031 m2 (small)
Launch date: June 29, 1961
Source: United States (US)
Launch site: AIR FORCE EASTERN TEST RANGE (AFETR)

Note: This is SATELLITE DEBRIS
Your satellite tracking list
Your tracking list is empty




NASA's NSSDC Master Catalog

Two Line Element Set (TLE):
1 04028U 61015JQ  26023.39877869  .00003150  00000-0  60801-3 0  9994
2 04028  66.7527  17.8279 0086732 108.2579 252.7999 14.62475262352643
Source of the keplerian elements: AFSPC